Theta_e
309 309 309 309 309 309 309 309 309 308 308 308 307 307 306 306 309 311 311 312 315 315 315 313 315 316 315 314 313 308 311 311 313 313 314 312 313 311 309 310 309 308 309 308 309
310 310 310 309 309 309 309 309 309 309 309 309 309 308 306 307 310 313 312 311 314 313 314 314 314 313 312 315 314 313 309 310 309 310 314 314 312 313 313 311 308 308 306 307 308
311 311 310 310 310 310 309 309 309 309 309 309 310 309 307 307 310 309 317 312 314 315 315 315 314 313 315 315 315 312 314 311 312 311 313 313 312 310 310 311 308 309 309 305 305
314 313 313 312 311 310 309 309 309 309 309 309 310 309 308 311 309 311 316 314 315 315 315 314 312 314 315 315 314 316 313 312 313 314 315 314 310 311 309 315 311 307 307 305 303
316 316 315 315 314 313 312 312 310 309 308 307 308 309 308 309 308 312 313 316 315 314 314 311 313 312 315 312 313 315 314 314 312 312 312 311 313 312 309 309 308 306 305 304 303
317 316 316 316 315 314 314 314 312 311 310 308 306 306 310 307 311 311 312 315 315 313 312 311 310 310 312 312 313 312 312 311 310 312 311 313 313 313 310 309 308 307 305 303 302
317 316 316 316 316 315 316 314 311 310 310 309 308 306 311 307 312 312 313 314 314 313 309 310 311 312 311 311 310 312 312 308 308 309 310 309 312 310 311 309 308 306 304 303 302
317 317 317 316 317 317 316 312 310 309 309 309 308 309 303 308 310 310 312 311 311 311 311 310 310 310 311 310 308 310 309 310 309 308 309 310 309 310 307 306 306 306 305 304 305
319 318 318 317 317 318 315 311 309 309 308 307 309 308 305 308 311 310 311 310 309 309 310 310 310 309 309 309 308 307 309 307 308 307 308 308 309 308 306 307 307 306 306 306 308
321 320 319 319 318 318 315 309 311 313 312 314 313 308 307 307 311 310 309 310 308 307 309 309 305 308 306 307 310 308 307 307 307 309 307 308 309 309 308 308 307 307 308 309 308
324 323 321 319 319 316 312 310 305 305 312 308 310 305 306 309 312 309 309 309 307 307 309 308 308 309 309 307 309 307 306 306 306 307 308 309 309 309 308 307 309 309 308 308 309
325 323 322 320 319 317 310 308 308 308 307 306 306 307 307 310 311 309 309 310 310 310 306 308 309 309 308 308 308 308 308 309 309 308 307 308 309 309 308 309 308 309 309 309 308
326 325 324 321 320 315 309 307 307 309 306 306 305 305 306 308 308 308 307 307 310 309 307 311 310 308 308 308 309 307 308 309 309 307 306 305 309 307 307 306 307 307 307 305 305
325 325 324 323 318 315 312 309 307 308 311 311 307 307 308 307 307 303 306 308 309 310 308 308 308 309 308 308 308 310 307 308 308 308 310 307 311 307 307 307 306 306 304 303 304
323 324 324 323 319 315 314 307 306 304 325 314 308 308 307 306 305 305 304 307 309 309 308 309 309 309 309 309 307 310 308 307 307 307 307 308 307 310 306 308 307 306 305 304 303
321 322 322 320 318 318 315 310 306 315 326 316 307 308 309 308 306 304 306 304 305 307 306 307 305 306 307 306 306 307 308 306 305 306 310 309 308 313 307 308 309 307 309 304 303
319 321 320 319 317 317 316 313 325 326 318 317 310 308 307 307 309 306 308 308 308 312 310 308 306 306 306 308 306 307 307 309 308 309 312 307 307 311 309 309 307 306 305 304 302
313 316 319 319 319 314 317 320 326 321 319 315 314 312 315 310 312 307 306 308 305 306 306 312 320 307 304 307 308 306 308 310 314 311 314 303 310 315 311 307 305 303 303 302 302
307 312 317 318 319 314 318 324 322 318 318 319 321 323 320 313 314 309 306 308 309 304 315 309 310 305 304 306 306 306 308 308 311 312 311 313 310 309 311 307 306 306 303 303 302
304 313 314 315 318 313 319 322 318 317 319 320 323 321 322 316 313 310 309 308 309 304 306 310 312 308 306 305 305 306 306 310 308 314 315 312 311 313 311 312 308 305 303 306 303
305 311 312 316 315 314 319 318 319 317 317 319 322 323 321 320 316 319 320 315 306 309 304 307 311 313 312 308 310 310 307 306 307 311 316 317 315 310 312 311 305 305 306 304 300
306 309 311 313 315 315 317 317 315 316 315 316 318 319 320 319 319 318 319 317 311 309 310 307 317 319 315 310 307 306 311 310 313 313 310 312 314 309 308 308 304 300 299 299 297
305 306 310 312 313 315 314 315 316 316 316 317 317 316 316 318 319 318 317 314 313 314 316 315 317 318 315 310 309 314 314 313 314 314 318 318 316 310 305 297 298 296 293 293 293
302 303 307 310 309 312 311 312 313 312 315 314 315 315 315 316 314 316 315 312 308 309 310 311 314 316 316 313 313 316 314 313 315 318 316 316 314 312 297 296 293 293 290 290 291
296 300 301 302 306 308 309 309 310 310 309 310 313 313 313 314 314 315 313 311 308 307 306 310 314 312 312 313 312 311 310 308 310 310 312 311 311 303 292 292 292 293 291 291 291
295 297 297 298 298 302 305 306 307 307 306 308 308 308 308 309 310 311 308 305 307 305 305 306 307 305 304 303 302 304 305 305 305 305 306 307 304 291 292 291 291 291 292 290 291
293 295 297 296 297 298 298 301 302 300 301 299 299 303 304 303 300 299 298 298 299 300 301 302 304 303 303 300 300 300 300 302 302 301 300 301 293 291 291 290 289 290 292 289 290
Wind_Speed
9 10 10 11 11 10 11 11 12 13 14 15 15 14 15 15 13 9 7 7 4 11 9 9 6 5 3 3 3 3 3 3 5 5 5 2 1 2 1 3 3 7 6 5 3
10 10 11 11 13 13 12 12 12 12 13 14 15 15 16 17 14 11 12 8 9 14 12 12 5 6 2 2 1 4 3 7 6 4 5 3 4 5 2 5 5 6 8 8 8
10 11 12 12 12 13 14 15 15 14 13 14 14 14 15 13 5 5 6 11 11 13 8 8 9 5 2 2 5 5 6 5 6 8 5 4 4 4 5 8 11 9 8 7 9
12 13 13 14 14 14 15 15 16 16 16 16 15 13 12 3 6 2 1 8 11 15 9 7 4 4 4 5 4 3 8 6 4 4 2 5 6 6 8 19 8 14 8 5 9
13 14 15 16 17 17 17 17 17 17 17 16 16 13 5 2 9 11 8 8 14 16 9 5 4 5 4 4 3 5 5 6 7 4 7 6 14 8 9 20 9 9 9 12 10
13 15 16 17 19 20 19 21 20 18 18 18 16 11 1 4 7 10 8 11 14 17 8 8 6 7 4 5 6 2 4 6 5 6 7 8 19 5 13 7 13 6 13 12 11
13 14 16 18 19 21 23 23 22 20 19 17 15 6 2 15 8 8 9 9 15 11 5 8 5 3 3 4 2 3 7 8 6 6 7 6 10 11 20 3 13 14 11 11 13
12 13 15 17 20 23 26 24 25 22 18 15 11 6 7 8 13 17 15 7 6 11 6 5 9 5 3 2 5 3 1 5 2 4 4 8 10 22 7 7 13 14 11 10 14
12 14 16 18 20 26 26 26 21 13 8 4 6 6 9 7 5 10 13 6 9 6 7 5 5 3 2 2 4 3 6 8 10 10 6 8 10 14 6 6 10 13 14 12 19
12 14 16 18 21 26 25 19 6 4 6 5 4 2 6 5 2 3 8 13 4 6 3 3 5 3 2 4 7 9 6 6 7 7 6 6 17 14 15 13 18 17 19 20 21
11 13 16 18 21 24 24 5 5 2 1 8 4 4 4 1 3 3 5 7 4 4 6 1 4 9 20 13 5 3 6 12 8 8 4 20 23 18 16 13 25 22 18 20 20
12 13 14 16 19 20 12 5 0 2 8 9 8 9 8 1 2 2 11 6 4 6 5 4 7 17 2 2 6 6 11 18 14 15 5 14 21 18 19 20 21 23 23 17 17
13 12 13 14 17 9 7 3 3 1 2 9 5 4 4 7 7 6 8 4 5 6 9 12 10 4 6 3 8 4 7 17 14 6 5 10 13 7 9 8 13 19 21 9 14
14 12 13 13 8 7 4 8 4 2 4 7 3 1 1 1 2 1 2 2 2 9 5 6 4 6 3 7 9 15 11 13 10 6 7 5 15 6 8 10 9 15 8 12 12
14 13 13 9 8 2 3 7 3 2 6 4 2 1 1 4 2 1 3 2 5 5 3 7 2 2 4 10 7 10 5 7 3 4 5 1 3 1 4 6 11 9 8 7 8
7 9 10 7 7 6 2 5 2 3 8 3 1 1 1 1 1 2 2 3 1 2 3 7 0 6 8 7 9 2 2 4 4 2 5 9 8 20 4 4 2 8 14 10 9
6 5 9 8 2 3 3 3 2 7 4 2 1 1 2 4 3 4 5 5 6 2 4 2 5 4 4 3 1 3 4 3 3 1 9 3 3 16 10 16 8 10 9 7 9
9 8 8 13 10 6 3 2 9 4 7 1 2 3 4 4 4 3 4 4 6 3 2 4 15 6 5 9 9 8 9 6 7 5 12 3 7 18 7 8 11 6 7 6 9
13 9 9 15 17 12 1 7 8 6 5 3 1 2 3 2 3 1 5 5 7 10 7 4 10 3 6 4 4 4 6 3 3 5 3 12 14 15 18 7 4 3 6 8 10
6 4 10 13 19 11 5 21 6 5 1 0 4 6 4 3 1 2 5 2 5 8 2 4 11 6 2 3 5 7 2 2 1 4 8 7 14 12 22 26 7 9 10 13 9
3 2 4 17 21 3 9 11 11 10 9 6 3 7 7 4 4 5 2 5 5 2 5 2 3 6 1 6 11 2 4 4 2 5 12 18 13 10 22 21 9 11 12 15 18
2 2 1 23 6 4 14 6 8 21 13 7 8 18 18 16 19 18 17 10 5 4 4 9 5 11 19 6 6 5 12 7 10 10 10 11 11 12 13 15 20 19 16 17 17
3 2 2 2 7 10 9 7 10 19 20 4 6 8 13 15 11 13 13 3 7 5 3 4 3 4 6 6 4 2 2 4 10 5 12 11 7 8 15 19 19 18 17 16 16
1 1 2 2 6 6 13 15 16 8 11 9 14 13 15 20 17 13 4 4 3 2 4 3 5 12 15 15 8 11 11 11 13 9 13 13 20 12 14 14 16 12 15 18 18
1 3 1 3 7 13 11 9 15 11 2 5 4 9 9 10 10 10 8 4 1 3 2 2 14 16 18 12 6 7 12 17 16 16 11 19 19 5 10 13 14 12 15 14 17
2 2 2 3 5 5 4 13 20 24 15 20 18 18 15 15 12 16 6 4 5 3 2 3 3 5 11 18 13 19 17 18 21 20 15 18 9 2 2 7 9 8 10 15 15
0 2 0 3 1 2 2 4 4 5 6 7 8 6 9 5 3 2 4 5 4 2 2 1 3 5 18 12 8 12 21 20 17 17 2 8 3 2 4 7 11 11 7 12 12
Wind_Direction
350 351 350 349 347 344 342 341 340 340 340 341 341 341 337 331 315 290 242 229 217 203 177 162 151 141 113 93 93 127 64 243 252 184 250 198 258 224 138 267 220 208 217 236 252
336 337 337 337 337 335 330 327 326 327 330 331 334 337 337 334 315 262 270 225 210 192 177 164 152 136 80 133 112 114 146 228 213 208 245 283 204 267 267 256 257 272 257 236 204
338 340 337 331 328 327 325 320 317 315 316 317 322 329 335 336 333 259 344 198 206 194 196 175 145 122 166 151 197 179 210 216 243 226 262 271 282 220 168 276 228 223 243 199 195
344 343 340 336 331 326 323 317 311 309 309 309 312 320 332 350 303 311 294 204 193 191 175 143 92 131 181 208 186 231 244 225 246 201 288 267 303 261 180 257 224 225 235 175 204
340 340 339 339 336 331 328 323 316 307 299 296 299 310 330 30 251 277 272 219 190 192 189 140 144 141 200 207 184 219 241 248 244 269 262 298 265 239 241 257 261 256 245 238 228
332 335 335 337 336 333 330 324 317 307 297 294 293 299 118 244 256 264 249 199 196 197 182 159 190 199 219 223 190 227 257 270 290 244 239 211 269 148 257 274 280 220 253 243 232
328 332 334 335 334 334 331 322 317 303 291 284 284 271 184 237 243 244 227 218 212 204 161 203 183 156 163 283 276 302 312 313 214 246 232 170 295 231 251 264 268 275 266 268 239
326 331 334 335 335 335 332 326 315 300 289 277 265 179 240 252 251 247 224 194 189 212 204 198 199 184 186 311 356 304 180 302 5 128 263 156 257 273 251 241 269 275 279 278 275
324 328 332 336 336 336 333 329 318 320 310 257 155 152 262 281 242 247 219 178 158 155 181 139 135 166 75 91 5 332 250 224 300 215 197 186 254 254 283 201 259 273 273 271 275
321 328 331 335 335 336 336 326 330 359 78 93 83 49 271 257 164 151 171 156 129 121 76 79 60 119 28 116 240 234 236 252 244 277 182 229 252 273 286 286 265 265 275 273 269
315 327 328 331 334 339 343 333 360 348 24 202 231 248 351 16 150 79 135 117 94 78 174 140 125 201 221 202 243 183 238 252 264 264 299 279 276 270 269 273 278 277 267 268 268
291 303 312 325 332 340 351 60 144 288 308 252 233 266 252 202 308 132 157 145 153 200 111 49 223 231 48 148 235 249 269 272 276 262 249 272 273 278 264 254 255 269 278 277 287
286 291 300 314 327 348 18 23 319 248 244 288 213 201 237 172 220 218 163 142 157 174 201 213 237 192 184 160 239 209 235 264 266 303 253 298 280 233 274 248 257 262 263 282 262
291 297 297 311 313 342 333 338 321 243 287 273 272 307 92 207 251 316 185 150 223 231 194 231 295 204 134 209 202 264 226 256 271 347 279 2 297 174 233 263 276 269 280 265 284
277 281 281 279 297 310 311 338 329 301 293 267 215 345 37 167 146 320 154 109 196 184 144 250 196 164 171 220 158 240 176 237 191 203 318 274 281 99 101 229 272 295 277 284 317
282 268 266 253 252 253 295 340 329 8 249 302 126 256 180 279 203 88 138 72 68 180 224 243 330 179 219 217 187 108 98 57 46 96 281 188 179 295 157 243 274 317 318 332 330
301 265 245 223 244 209 121 322 346 225 331 307 294 306 261 229 232 181 161 170 188 218 236 211 216 219 167 222 117 139 79 313 327 39 232 90 154 254 292 281 267 279 278 301 326
290 277 239 233 242 181 113 73 241 199 228 335 310 8 253 180 260 196 132 236 224 156 144 214 294 179 180 195 198 184 171 176 220 253 283 98 243 266 250 278 261 272 264 324 325
289 279 233 221 216 198 182 217 232 183 214 233 141 230 261 271 246 208 233 235 215 182 193 198 262 183 190 183 180 179 179 237 313 264 254 266 274 298 291 304 1 332 336 338 333
298 255 230 223 208 166 224 237 229 206 149 292 219 190 260 228 184 242 202 210 254 199 340 264 265 189 209 151 217 183 211 233 349 253 250 227 256 269 290 289 308 323 350 335 294
229 262 260 202 175 192 226 240 249 248 251 247 248 252 249 236 222 267 214 277 232 214 186 226 247 272 119 204 207 196 234 222 236 207 260 267 259 256 272 296 15 353 338 7 21
196 218 251 158 197 230 235 232 239 262 269 278 259 259 260 267 272 266 247 212 198 179 181 221 203 240 255 235 222 197 253 241 241 252 246 269 265 297 325 339 23 40 22 4 11
190 263 245 210 227 229 247 258 250 265 267 266 264 257 268 267 279 247 246 244 289 279 292 8 230 286 304 324 42 122 293 276 279 273 246 262 269 304 7 30 21 19 7 4 3
259 232 238 232 262 254 254 262 265 247 259 247 265 265 275 276 265 266 263 312 40 171 312 192 228 257 270 266 264 273 271 275 268 263 287 269 285 299 355 358 357 6 15 360 356
55 240 251 229 240 247 247 266 271 276 195 321 259 246 275 285 277 261 251 262 298 357 354 324 269 268 268 287 317 297 290 287 265 265 265 286 286 24 11 353 352 358 358 0 352
164 213 352 283 304 300 234 245 256 268 275 271 267 276 279 269 259 283 288 195 237 357 25 128 288 337 298 293 292 282 271 260 266 278 264 259 262 20 317 328 332 335 346 343 342
184 316 83 260 342 146 220 285 313 15 56 46 12 327 295 310 14 7 299 289 279 297 241 252 270 265 271 285 298 278 253 253 255 264 267 252 115 217 280 314 329 322 324 340 331